Flag for U.S.A. Weather past 2 weeks in Lincoln, Nebraska, U.S.A.

28 °F

Mostly cloudy.

Feels Like: 14 °F
Forecast: 21 / 26 °F
Wind: 21 mph from North

Location: Lincoln Municipal Airport

Current Time: Nov 26, 2015 at 6:03:24 PM

Latest Report: Nov 26, 2015 at 4:54 PM

Visibility: 10 mi

Pressure: 30.37 "Hg

Humidity: 81%

Dew point: 23 °F

Location of LincolnLocation

Historic Weather in Lincoln — Graph


Lincoln temperature yesterday

Maximum temperature yesterday: 60 °F (at 12:54 PM)
Minimum temperature yesterday: 38 °F (at 10:54 PM)
Average temperature yesterday: 50 °F

Past Weeks' High & Low Weather Summary

High68 °F (Nov 14, 2:54 PM)100% (Nov 17, 6:54 AM)30.48 "Hg (Nov 17, 6:54 AM)
Low23 °F (Nov 22, 5:54 AM)24% (Nov 19, 11:54 AM)29.29 "Hg (Nov 18, 6:54 AM)
Average44 °F68%29.99 "Hg
* Reported Nov 11 4:54 PM — Nov 26 4:54 PM, Lincoln, Weather by CustomWeather, © 2015

Note: Actual official high and low records may vary slightly from our data, if they occured in-between our weather recording intervals... More about our weather records


Lincoln weather history for previous 24 hours

Time TempWeatherWind HumidityBarometerVisibility
4:54 PM
Thu, Nov 26
28 °FMostly cloudy.21 mph81%30.37 "Hg10 mi
3:54 PM28 °FMostly cloudy.22 mph89%30.34 "Hg9 mi
3:01 PM29 °FLight freezing rain. Overcast.21 mph85%30.30 "Hg7 mi
2:54 PM29 °FOvercast.21 mph85%30.33 "Hg10 mi
1:54 PM30 °FLight freezing rain. Overcast.21 mph85%30.31 "Hg8 mi
12:54 PM31 °FLight freezing rain. Mostly cloudy.18 mph89%30.31 "Hg7 mi
12:01 PM33 °FLight rain. Fog.18 mph88%30.26 "Hg6 mi
11:54 AM32 °FLight rain. Ice fog.17 mph92%30.29 "Hg6 mi
10:54 AM33 °FRain. Fog.23 mph88%30.29 "Hg5 mi
9:54 AM33 °FLight rain. Mostly cloudy.21 mph88%30.26 "Hg8 mi
8:54 AM33 °FLight rain. Mostly cloudy.18 mph88%30.26 "Hg7 mi
7:54 AM33 °FLight rain. Overcast.20 mph92%30.24 "Hg8 mi
7:04 AM34 °FLight rain. Mostly cloudy.20 mph92%30.18 "Hg10 mi
7:01 AM34 °FLight rain. Overcast.20 mph92%30.18 "Hg10 mi
5:54 AM35 °FLight rain. Fog.18 mph92%30.17 "Hg4 mi
4:54 AM36 °FLight rain. Fog.14 mph97%30.14 "Hg2 mi
3:54 AM37 °FLight rain. Fog.17 mph93%30.12 "Hg2 mi
2:54 AM37 °FLight rain. Fog.17 mph93%30.10 "Hg2 mi
1:54 AM38 °FFog.18 mph90%30.09 "Hg3 mi
12:54 AM38 °FFog.15 mph90%30.09 "Hg5 mi
11:54 PM
Wed, Nov 25
38 °FFog.14 mph86%30.09 "Hg5 mi
10:54 PM38 °FOvercast.14 mph86%30.09 "Hg7 mi
9:54 PM39 °FMostly cloudy.20 mph79%30.06 "Hg8 mi
8:54 PM39 °FOvercast.17 mph79%30.05 "Hg8 mi
7:54 PM41 °FOvercast.21 mph76%30.05 "Hg9 mi
6:54 PM44 °FOvercast.21 mph73%30.02 "Hg10 mi
Weather by CustomWeather, © 2015

See weather overviewHow to use our weather pages